Total_Precipitation_Accumulation
0.03 0.07 0.29 0.40 0.37 0.33 0.33 0.36 0.35 0.31 0.31 0.34 0.37 0.39 0.40 0.41 0.42 0.39 0.37 0.38 0.38 0.37 0.39 0.46 0.49 0.48 0.44 0.38 0.32 0.30 0.26 0.26 0.25 0.28 0.30 0.33 0.33 0.31 0.30 0.28 0.26 0.29 0.40
0.05 0.09 0.25 0.32 0.32 0.31 0.35 0.35 0.33 0.28 0.27 0.31 0.35 0.39 0.40 0.41 0.41 0.40 0.40 0.40 0.41 0.41 0.41 0.44 0.45 0.45 0.43 0.38 0.34 0.30 0.27 0.25 0.20 0.19 0.20 0.20 0.29 0.36 0.34 0.33 0.33 0.40 0.42
0.04 0.07 0.19 0.27 0.28 0.31 0.35 0.34 0.31 0.28 0.27 0.28 0.32 0.39 0.41 0.40 0.40 0.41 0.41 0.40 0.42 0.43 0.45 0.46 0.46 0.46 0.40 0.37 0.35 0.30 0.29 0.24 0.16 0.12 0.12 0.16 0.29 0.40 0.37 0.35 0.36 0.43 0.43
0.02 0.05 0.12 0.21 0.26 0.32 0.35 0.36 0.33 0.30 0.30 0.30 0.32 0.37 0.41 0.40 0.38 0.38 0.40 0.41 0.47 0.49 0.51 0.50 0.47 0.47 0.40 0.35 0.33 0.31 0.30 0.24 0.16 0.10 0.05 0.12 0.31 0.47 0.46 0.44 0.43 0.45 0.46
0.01 0.04 0.10 0.20 0.27 0.33 0.37 0.38 0.37 0.35 0.36 0.37 0.37 0.38 0.41 0.43 0.40 0.38 0.36 0.40 0.49 0.51 0.53 0.54 0.52 0.50 0.44 0.38 0.35 0.35 0.36 0.31 0.18 0.08 0.03 0.07 0.26 0.54 0.53 0.48 0.45 0.44 0.43
0.01 0.03 0.10 0.21 0.30 0.36 0.39 0.42 0.39 0.39 0.41 0.41 0.41 0.43 0.45 0.46 0.44 0.43 0.41 0.40 0.41 0.45 0.51 0.54 0.54 0.55 0.51 0.43 0.41 0.44 0.46 0.40 0.18 0.05 0.04 0.07 0.23 0.55 0.55 0.48 0.43 0.41 0.40
0.02 0.05 0.12 0.24 0.34 0.38 0.41 0.45 0.44 0.44 0.47 0.46 0.45 0.48 0.50 0.51 0.52 0.50 0.47 0.42 0.38 0.38 0.42 0.47 0.49 0.50 0.52 0.47 0.46 0.49 0.55 0.42 0.17 0.10 0.08 0.09 0.23 0.63 0.76 0.62 0.48 0.41 0.40
0.03 0.07 0.14 0.28 0.37 0.42 0.46 0.51 0.49 0.50 0.56 0.56 0.56 0.54 0.53 0.53 0.54 0.53 0.50 0.46 0.42 0.40 0.42 0.45 0.47 0.50 0.53 0.52 0.49 0.51 0.54 0.36 0.17 0.15 0.14 0.15 0.33 0.76 0.90 0.88 0.69 0.50 0.43
0.05 0.08 0.15 0.26 0.37 0.47 0.52 0.55 0.56 0.54 0.58 0.60 0.60 0.60 0.58 0.58 0.60 0.61 0.58 0.53 0.48 0.46 0.46 0.44 0.42 0.42 0.44 0.50 0.50 0.46 0.41 0.31 0.17 0.21 0.20 0.27 0.36 0.77 0.92 1.01 0.89 0.68 0.53
0.08 0.12 0.19 0.29 0.37 0.45 0.52 0.58 0.59 0.57 0.62 0.64 0.64 0.63 0.62 0.64 0.66 0.67 0.62 0.55 0.51 0.49 0.45 0.42 0.40 0.36 0.34 0.35 0.36 0.34 0.28 0.23 0.17 0.22 0.34 0.33 0.38 0.81 0.99 1.04 0.95 0.84 0.70
0.13 0.15 0.22 0.35 0.45 0.49 0.52 0.54 0.62 0.66 0.70 0.70 0.70 0.64 0.62 0.59 0.56 0.54 0.52 0.54 0.54 0.52 0.47 0.42 0.40 0.37 0.33 0.27 0.25 0.24 0.20 0.14 0.16 0.26 0.30 0.32 0.50 0.91 1.06 1.07 1.00 0.90 0.83
0.13 0.16 0.23 0.34 0.44 0.54 0.56 0.59 0.68 0.69 0.69 0.69 0.65 0.65 0.61 0.56 0.53 0.49 0.46 0.48 0.52 0.54 0.53 0.50 0.45 0.39 0.33 0.25 0.27 0.28 0.16 0.10 0.10 0.13 0.15 0.23 0.53 0.97 1.12 1.07 1.07 1.03 0.98
0.15 0.20 0.25 0.34 0.44 0.55 0.59 0.61 0.64 0.66 0.67 0.70 0.72 0.69 0.68 0.65 0.63 0.61 0.57 0.57 0.52 0.49 0.49 0.49 0.48 0.42 0.37 0.33 0.32 0.30 0.21 0.17 0.12 0.10 0.10 0.17 0.32 0.59 0.88 1.03 1.09 1.11 1.11
0.20 0.24 0.30 0.38 0.47 0.54 0.62 0.66 0.65 0.65 0.64 0.65 0.70 0.72 0.70 0.68 0.65 0.64 0.62 0.57 0.53 0.51 0.51 0.48 0.45 0.40 0.37 0.32 0.30 0.26 0.23 0.21 0.17 0.15 0.11 0.13 0.20 0.29 0.50 0.75 0.93 1.05 1.14
0.22 0.27 0.33 0.43 0.49 0.55 0.63 0.70 0.73 0.68 0.63 0.60 0.63 0.67 0.67 0.65 0.63 0.60 0.55 0.51 0.49 0.48 0.46 0.41 0.37 0.32 0.29 0.29 0.28 0.25 0.24 0.24 0.23 0.21 0.18 0.17 0.17 0.20 0.30 0.49 0.72 0.93 1.09
0.21 0.26 0.33 0.43 0.52 0.59 0.62 0.65 0.69 0.73 0.69 0.66 0.62 0.58 0.60 0.61 0.61 0.61 0.58 0.56 0.52 0.47 0.45 0.43 0.38 0.33 0.28 0.26 0.24 0.23 0.23 0.22 0.23 0.24 0.22 0.23 0.21 0.21 0.27 0.37 0.54 0.82 1.04
0.21 0.28 0.38 0.46 0.58 0.67 0.68 0.68 0.69 0.73 0.76 0.73 0.69 0.65 0.61 0.58 0.57 0.61 0.63 0.59 0.54 0.50 0.47 0.45 0.43 0.40 0.35 0.29 0.24 0.21 0.19 0.19 0.18 0.19 0.21 0.25 0.26 0.25 0.26 0.33 0.41 0.61 0.89
0.25 0.31 0.42 0.50 0.60 0.70 0.75 0.77 0.74 0.74 0.77 0.80 0.76 0.74 0.70 0.65 0.62 0.63 0.64 0.63 0.57 0.54 0.52 0.49 0.46 0.43 0.39 0.33 0.27 0.24 0.20 0.18 0.16 0.15 0.15 0.18 0.26 0.29 0.28 0.29 0.34 0.45 0.71
0.23 0.30 0.42 0.53 0.56 0.63 0.76 0.83 0.82 0.81 0.83 0.84 0.82 0.79 0.75 0.70 0.66 0.66 0.64 0.63 0.64 0.64 0.60 0.57 0.53 0.47 0.41 0.36 0.32 0.28 0.23 0.20 0.18 0.17 0.15 0.14 0.17 0.24 0.30 0.31 0.33 0.35 0.49
0.23 0.30 0.39 0.54 0.58 0.63 0.75 0.92 0.94 0.91 0.91 0.90 0.84 0.78 0.77 0.75 0.70 0.66 0.65 0.62 0.61 0.62 0.61 0.58 0.55 0.49 0.43 0.39 0.37 0.33 0.27 0.22 0.20 0.18 0.16 0.15 0.15 0.17 0.26 0.32 0.34 0.30 0.32
0.24 0.29 0.38 0.54 0.60 0.68 0.76 0.86 0.92 0.85 0.87 0.88 0.83 0.79 0.76 0.78 0.79 0.74 0.69 0.64 0.61 0.57 0.54 0.51 0.53 0.54 0.51 0.47 0.48 0.45 0.39 0.32 0.26 0.22 0.18 0.16 0.14 0.14 0.18 0.29 0.37 0.35 0.30
0.23 0.25 0.31 0.47 0.58 0.64 0.69 0.72 0.76 0.78 0.81 0.84 0.80 0.82 0.82 0.80 0.84 0.81 0.72 0.70 0.66 0.60 0.56 0.52 0.51 0.54 0.55 0.54 0.55 0.56 0.49 0.44 0.36 0.27 0.23 0.20 0.16 0.15 0.18 0.24 0.33 0.39 0.39
0.21 0.22 0.27 0.39 0.53 0.61 0.67 0.81 0.86 0.93 1.00 1.00 0.92 0.84 0.82 0.83 0.84 0.87 0.81 0.73 0.71 0.68 0.62 0.56 0.51 0.51 0.54 0.51 0.51 0.67 0.70 0.50 0.32 0.24 0.22 0.21 0.20 0.18 0.18 0.21 0.29 0.36 0.43
0.17 0.20 0.25 0.39 0.52 0.60 0.68 0.80 0.85 0.85 0.90 0.90 0.84 0.80 0.76 0.78 0.82 0.81 0.84 0.81 0.76 0.72 0.66 0.60 0.56 0.53 0.56 0.58 0.54 0.54 0.59 0.57 0.56 0.37 0.22 0.20 0.22 0.22 0.21 0.21 0.25 0.31 0.38
0.17 0.22 0.26 0.36 0.53 0.64 0.71 0.74 0.79 0.78 0.74 0.79 0.89 0.89 0.85 0.81 0.81 0.82 0.80 0.83 0.81 0.75 0.70 0.67 0.65 0.63 0.63 0.63 0.60 0.54 0.50 0.46 0.47 0.56 0.37 0.24 0.25 0.25 0.25 0.26 0.27 0.30 0.35
0.19 0.26 0.32 0.36 0.47 0.64 0.76 0.78 0.76 0.76 0.74 0.80 0.89 0.94 0.95 0.91 0.85 0.80 0.79 0.79 0.79 0.76 0.68 0.65 0.66 0.68 0.69 0.65 0.61 0.57 0.58 0.57 0.49 0.53 0.48 0.33 0.30 0.27 0.29 0.32 0.34 0.34 0.35